Location: The Saddle
(36.8333°N, 80.3417°W)
Time: 13:26:46
(UTC-05:00)

S-56A Canister/Altair - Pass Details

Date: 10 December 2023
Orbit: 639 x 2488 km, 38.9° (Epoch: 02 March)

Event Time Altitude Azimuth Distance (km) Brightness Sun altitude
Rises 11:38:09 0° 264° (W) 3,487 10.9 29.6°
Reaches altitude 10° 11:40:58 10° 267° (W) 2,355 10.1 29.7°
Maximum altitude 11:46:10 74° 352° (N) 702 7.6 29.9°
Drops below altitude 10° 11:50:37 10° 78° (ENE) 2,023 9.7 30.0°
Sets 11:52:53 0° 80° (E) 2,951 10.5 30.0°
